KN4URY Weather Reports


Display with metric or nautical units.
time (UTC)temp
F
wind
direction
speed
MPH
gust
MPH
rain 1hr
in
rain 24hr
in
rain mn
in
humidity
%
barometer
mb
20260903233320 96 341 0.0 0.0 0.00 0.00 0.00 60 1014.4
20260903232846 97 341 0.0 0.0 0.00 0.00 0.00 58 1014.3
20260903232329 99 341 0.0 0.0 0.00 0.00 0.00 55 1014.2
20260903231829 101 341 0.0 0.0 0.00 0.00 0.00 53 1014.2
20260903231328 103 341 0.0 0.0 0.00 0.00 0.00 51 1014.1
20260903230828 103 341 0.0 0.0 0.00 0.00 0.00 50 1014.1
20260903230328 104 341 0.0 0.0 0.00 0.00 0.00 50 1014.0
20260903225855 104 341 0.0 0.0 0.00 0.00 0.00 50 1013.9
20260903225335 104 341 0.0 0.0 0.00 0.00 0.00 49 1014.0
20260903224831 104 341 0.0 1.0 0.00 0.00 0.00 50 1014.0
20260903224331 104 341 0.0 1.0 0.00 0.00 0.00 49 1014.0
20260903223830 104 341 0.0 0.0 0.00 0.00 0.00 50 1013.9
20260903223329 104 341 0.0 1.0 0.00 0.00 0.00 50 1013.9
20260903222828 104 341 0.0 1.0 0.00 0.00 0.00 49 1013.9
20260903222354 104 341 0.0 1.0 0.00 0.00 0.00 50 1014.1
20260903221832 104 341 0.0 1.0 0.00 0.00 0.00 48 1014.1
20260903221333 104 341 0.0 2.0 0.00 0.00 0.00 47 1014.0
20260903220833 103 341 0.0 2.0 0.00 0.00 0.00 50 1014.1
20260903220331 104 341 0.0 1.0 0.00 0.00 0.00 46 1014.2
20260903215829 104 341 0.0 1.0 0.00 0.00 0.00 49 1014.2
20260903215329 103 341 0.0 2.0 0.00 0.00 0.00 46 1014.1
20260903214824 104 341 0.0 1.0 0.00 0.00 0.00 46 1014.1
20260903214351 104 341 0.0 2.0 0.00 0.00 0.00 47 1014.2
20260903213829 103 341 0.0 2.0 0.00 0.00 0.00 48 1014.3
20260903213329 103 341 0.0 4.0 0.00 0.00 0.00 49 1014.2
20260903212829 102 341 1.0 4.0 0.00 0.00 0.00 48 1014.2
20260903212329 103 341 0.0 4.0 0.00 0.00 0.00 47 1014.2
20260903211828 103 341 0.0 2.0 0.00 0.00 0.00 49 1014.3
20260903211330 103 341 1.0 3.0 0.00 0.00 0.00 46 1014.3
20260903210830 103 341 1.0 3.0 0.00 0.00 0.00 46 1014.3
20260903210329 104 341 0.0 1.0 0.00 0.00 0.00 46 1014.4
20260903205829 104 341 0.0 1.0 0.00 0.00 0.00 46 1014.5
20260903205328 104 341 0.0 1.0 0.00 0.00 0.00 48 1014.6
20260903204849 104 341 0.0 1.0 0.00 0.00 0.00 47 1014.6
20260903204326 103 341 0.0 2.0 0.00 0.00 0.00 47 1014.5
20260903203825 103 341 1.0 2.0 0.00 0.00 0.00 46 1014.7
20260903203325 102 341 0.0 2.0 0.00 0.00 0.00 48 1014.8
20260903202821 102 341 0.0 4.0 0.00 0.00 0.00 48 1014.8
20260903202321 102 341 2.0 4.0 0.00 0.00 0.00 46 1014.8
20260903201820 102 341 1.0 4.0 0.00 0.00 0.00 45 1014.7
20260903201320 101 341 0.0 5.0 0.00 0.00 0.00 43 1014.9
20260903200847 102 341 1.0 4.0 0.00 0.00 0.00 44 1014.9
20260903200323 101 341 1.0 4.0 0.00 0.00 0.00 45 1015.0
20260903195820 100 341 1.0 4.0 0.00 0.00 0.00 48 1015.2
20260903195316 100 341 1.0 5.0 0.00 0.00 0.00 48 1015.2
20260903194816 100 341 2.0 4.0 0.00 0.00 0.00 48 1015.3
20260903194342 101 341 1.0 3.0 0.00 0.00 0.00 49 1015.2
20260903193848 101 341 2.0 3.0 0.00 0.00 0.00 45 1015.4
20260903193325 103 341 1.0 2.0 0.00 0.00 0.00 47 1015.4
20260903192831 103 341 0.0 2.0 0.00 0.00 0.00 47 1015.6
20260903192357 101 341 0.0 7.0 0.00 0.00 0.00 50 1015.6
20260903191813 101 341 1.0 7.0 0.00 0.00 0.00 46 1015.7
20260903191334 103 341 0.0 2.0 0.00 0.00 0.00 43 1015.7
20260903190833 103 341 1.0 2.0 0.00 0.00 0.00 43 1015.8
20260903190333 103 341 0.0 2.0 0.00 0.00 0.00 44 1015.9
20260903185833 102 341 1.0 2.0 0.00 0.00 0.00 44 1016.0
20260903185356 100 341 0.0 5.0 0.00 0.00 0.00 47 1016.0
20260903184835 99 341 2.0 5.0 0.00 0.00 0.00 47 1016.0
20260903184338 100 341 2.0 5.0 0.00 0.00 0.00 48 1016.1
20260903183836 100 341 0.0 4.0 0.00 0.00 0.00 49 1016.2
20260903183336 99 341 2.0 5.0 0.00 0.00 0.00 49 1016.3
20260903182831 99 341 2.0 5.0 0.00 0.00 0.00 48 1016.2
20260903182330 99 341 2.0 6.0 0.00 0.00 0.00 50 1016.2
20260903181828 98 341 1.0 6.0 0.00 0.00 0.00 49 1016.3
20260903181355 98 341 1.0 4.0 0.00 0.00 0.00 53 1016.3
20260903180834 98 341 2.0 4.0 0.00 0.00 0.00 51 1016.4
20260903180334 98 341 0.0 3.0 0.00 0.00 0.00 54 1016.5
20260903175834 96 341 1.0 3.0 0.00 0.00 0.00 55 1016.5
20260903175334 96 341 1.0 4.0 0.00 0.00 0.00 53 1016.5
20260903174835 97 341 2.0 4.0 0.00 0.00 0.00 52 1016.6
20260903174335 99 341 0.0 1.0 0.00 0.00 0.00 51 1016.6
20260903173813 99 341 1.0 2.0 0.00 0.00 0.00 52 1016.5
20260903173314 98 341 1.0 2.0 0.00 0.00 0.00 51 1016.5
20260903172837 99 341 1.0 2.0 0.00 0.00 0.00 50 1016.6
20260903172336 99 341 0.0 2.0 0.00 0.00 0.00 50 1016.6
20260903171836 99 341 0.0 2.0 0.00 0.00 0.00 51 1016.7
20260903171336 99 341 1.0 4.0 0.00 0.00 0.00 50 1016.8
20260903170815 99 341 1.0 2.0 0.00 0.00 0.00 50 1016.7
20260903170312 98 341 0.0 3.0 0.00 0.00 0.00 54 1016.8
20260903165838 97 341 1.0 3.0 0.00 0.00 0.00 54 1016.9
20260903165312 98 341 1.0 3.0 0.00 0.00 0.00 53 1016.9
20260903164838 98 341 1.0 5.0 0.00 0.00 0.00 54 1016.9
20260903164336 97 341 2.0 5.0 0.00 0.00 0.00 53 1017.1
20260903163812 97 341 0.0 3.0 0.00 0.00 0.00 54 1017.0
20260903163337 97 341 1.0 3.0 0.00 0.00 0.00 56 1017.0
20260903162835 97 341 0.0 1.0 0.00 0.00 0.00 59 1017.2
20260903162313 96 341 0.0 3.0 0.00 0.00 0.00 58 1017.1
20260903161812 95 341 0.0 3.0 0.00 0.00 0.00 60 1017.2
20260903161336 95 341 1.0 3.0 0.00 0.00 0.00 59 1017.3
20260903160814 95 341 2.0 4.0 0.00 0.00 0.00 59 1017.4
20260903160313 95 341 1.0 4.0 0.00 0.00 0.00 59 1017.4
20260903155839 96 341 1.0 2.0 0.00 0.00 0.00 60 1017.5
20260903155313 96 341 0.0 2.0 0.00 0.00 0.00 58 1017.5
20260903154812 95 341 1.0 2.0 0.00 0.00 0.00 58 1017.5
20260903154312 95 341 0.0 2.0 0.00 0.00 0.00 61 1017.5
20260903153812 94 341 1.0 3.0 0.00 0.00 0.00 62 1017.6
20260903135840 83 341 1.0 3.0 0.00 0.00 0.00 80 1017.5
20260903135318 82 341 1.0 3.0 0.00 0.00 0.00 82 1017.5
20260903134815 82 341 0.0 3.0 0.00 0.00 0.00 81 1017.5
20260903134313 81 341 1.0 3.0 0.00 0.00 0.00 82 1017.4
20260903133812 81 341 0.0 3.0 0.00 0.00 0.00 82 1017.4
20260903133312 81 341 1.0 4.0 0.00 0.00 0.00 83 1017.4
20260903132813 80 341 1.0 4.0 0.00 0.00 0.00 83 1017.5
20260903132313 80 341 1.0 3.0 0.00 0.00 0.00 84 1017.5
20260903131838 80 341 1.0 3.0 0.00 0.00 0.00 83 1017.5
20260903131333 79 341 1.0 3.0 0.00 0.00 0.00 83 1017.5
20260903130830 79 341 1.0 3.0 0.00 0.00 0.00 84 1017.6
20260903130336 79 341 0.0 4.0 0.00 0.00 0.00 85 1017.6
20260903125837 79 341 1.0 3.0 0.00 0.00 0.00 86 1017.7
20260903125314 78 341 1.0 3.0 0.00 0.00 0.00 87 1017.7
20260903124816 78 341 1.0 3.0 0.00 0.00 0.00 87 1017.7
20260903124316 77 341 0.0 0.0 0.00 0.00 0.00 89 1017.7
20260903123815 77 341 0.0 0.0 0.00 0.00 0.00 90 1017.6
20260903123315 76 341 0.0 0.0 0.00 0.00 0.00 90 1017.7
20260903122814 76 341 0.0 0.0 0.00 0.00 0.00 91 1017.6
20260903122313 75 341 0.0 0.0 0.00 0.00 0.00 92 1017.6
20260903121812 74 341 0.0 0.0 0.00 0.00 0.00 93 1017.6
20260903121334 74 341 0.0 0.0 0.00 0.00 0.00 94 1017.6
20260903120835 73 341 0.0 0.0 0.00 0.00 0.00 95 1017.5
20260903120334 73 341 0.0 0.0 0.00 0.00 0.00 96 1017.6
20260903115836 72 341 0.0 0.0 0.00 0.00 0.00 97 1017.6
20260903115315 72 341 0.0 0.0 0.00 0.00 0.00 97 1017.5
20260903114842 71 341 0.0 0.0 0.00 0.00 0.00 98 1017.6
20260903114323 71 341 0.0 0.0 0.00 0.00 0.00 98 1017.6
20260903113823 71 341 0.0 0.0 0.00 0.00 0.00 98 1017.5
20260903113324 70 341 0.0 0.0 0.00 0.00 0.00 98 1017.5
20260903112826 70 341 0.0 0.0 0.00 0.00 0.00 97 1017.4
20260903112328 70 341 0.0 0.0 0.00 0.00 0.00 97 1017.5
20260903111824 70 341 0.0 0.0 0.00 0.00 0.00 97 1017.4
20260903111326 70 341 0.0 0.0 0.00 0.00 0.00 97 1017.4
20260903110854 70 341 0.0 0.0 0.00 0.00 0.00 97 1017.3
20260903110334 70 341 0.0 0.0 0.00 0.00 0.00 97 1017.3
20260903105834 70 341 0.0 0.0 0.00 0.00 0.00 97 1017.1
20260903105335 70 341 0.0 0.0 0.00 0.00 0.00 97 1017.3
20260903104821 70 341 0.0 0.0 0.00 0.00 0.00 97 1017.1
20260903104322 70 341 0.0 0.0 0.00 0.00 0.00 96 1017.1
20260903103822 70 341 0.0 0.0 0.00 0.00 0.00 97 1017.2
20260903103322 70 341 0.0 0.0 0.00 0.00 0.00 96 1017.2
20260903102825 70 341 0.0 0.0 0.00 0.00 0.00 97 1017.1
20260903102322 70 341 0.0 0.0 0.00 0.00 0.00 97 1017.1
20260903101824 70 341 0.0 0.0 0.00 0.00 0.00 97 1017.1
20260903101325 70 341 0.0 0.0 0.00 0.00 0.00 97 1017.0
20260903100825 70 341 0.0 0.0 0.00 0.00 0.00 97 1017.0
20260903100353 70 341 0.0 0.0 0.00 0.00 0.00 96 1017.0
20260903095831 70 341 0.0 0.0 0.00 0.00 0.00 97 1017.0
20260903095333 70 341 0.0 0.0 0.00 0.00 0.00 97 1016.8
20260903094835 70 341 0.0 0.0 0.00 0.00 0.00 97 1016.9
20260903094315 70 341 0.0 0.0 0.00 0.00 0.00 96 1016.9
20260903093817 70 341 0.0 0.0 0.00 0.00 0.00 96 1016.9
20260903093317 70 341 0.0 0.0 0.00 0.00 0.00 96 1016.9
20260903092838 69 341 0.0 0.0 0.00 0.00 0.00 96 1016.7
20260903092319 70 341 0.0 0.0 0.00 0.00 0.00 96 1016.7
20260903091821 69 341 0.0 0.0 0.00 0.00 0.00 96 1016.7
20260903091322 69 341 0.0 0.0 0.00 0.00 0.00 96 1016.7
20260903090822 70 341 0.0 0.0 0.00 0.00 0.00 96 1016.7
20260903090329 70 341 0.0 0.0 0.00 0.00 0.00 96 1016.8
20260903085831 70 341 0.0 0.0 0.00 0.00 0.00 96 1016.8
20260903085312 70 341 0.0 0.0 0.00 0.00 0.00 95 1016.8
20260903084814 70 341 0.0 0.0 0.00 0.00 0.00 95 1016.9
20260903084314 70 341 0.0 0.0 0.00 0.00 0.00 95 1016.8
20260903083814 71 341 0.0 0.0 0.00 0.00 0.00 95 1016.9
20260903083315 71 341 0.0 0.0 0.00 0.00 0.00 95 1016.8
20260903082817 71 341 0.0 0.0 0.00 0.00 0.00 95 1016.8
20260903082313 71 341 0.0 0.0 0.00 0.00 0.00 95 1016.9
20260903081814 71 341 0.0 0.0 0.00 0.00 0.00 95 1016.9
20260903081341 71 341 0.0 0.0 0.00 0.00 0.00 95 1016.8
20260903080821 72 341 0.0 0.0 0.00 0.00 0.00 95 1016.9
20260903080322 72 341 0.0 0.0 0.00 0.00 0.00 94 1016.7
20260903075824 72 341 0.0 0.0 0.00 0.00 0.00 94 1016.8
20260903075324 72 341 0.0 0.0 0.00 0.00 0.00 94 1016.8
20260903074824 72 341 0.0 0.0 0.00 0.00 0.00 94 1016.7
20260903074352 72 341 0.0 0.0 0.00 0.00 0.00 95 1016.7
20260903073831 72 341 0.0 0.0 0.00 0.00 0.00 95 1016.7
20260903073330 72 341 0.0 0.0 0.00 0.00 0.00 94 1016.6
20260903072827 72 341 0.0 0.0 0.00 0.00 0.00 94 1016.7
20260903072329 72 341 0.0 0.0 0.00 0.00 0.00 94 1016.7
20260903071828 72 341 0.0 0.0 0.00 0.00 0.00 94 1016.7
20260903071327 72 341 0.0 0.0 0.00 0.00 0.00 94 1016.6
20260903070828 72 341 0.0 0.0 0.00 0.00 0.00 94 1016.5
20260903070330 72 341 0.0 0.0 0.00 0.00 0.00 94 1016.5
20260903065857 72 341 0.0 0.0 0.00 0.00 0.00 93 1016.5
20260903065337 72 341 0.0 0.0 0.00 0.00 0.00 93 1016.5
20260903064816 72 341 0.0 0.0 0.00 0.00 0.00 93 1016.5
20260903064318 72 341 0.0 0.0 0.00 0.00 0.00 93 1016.4
20260903063842 72 341 0.0 0.0 0.00 0.00 0.00 92 1016.6
20260903063317 72 341 0.0 0.0 0.00 0.00 0.00 92 1016.8
20260903062818 73 341 0.0 0.0 0.00 0.00 0.00 92 1016.8
20260903062318 73 341 0.0 0.0 0.00 0.00 0.00 92 1016.8
20260903061819 73 341 0.0 0.0 0.00 0.00 0.00 92 1016.8
20260903061321 73 341 0.0 0.0 0.00 0.00 0.00 93 1016.9
20260903060823 72 341 0.0 0.0 0.00 0.00 0.00 93 1016.9
20260903060323 73 341 0.0 0.0 0.00 0.00 0.00 92 1017.0
20260903055851 73 341 0.0 0.0 0.00 0.00 0.00 92 1017.0
20260903055332 73 341 0.0 0.0 0.00 0.00 0.00 92 1016.9
20260903054832 73 341 0.0 0.0 0.00 0.00 0.00 92 1017.0
20260903054331 73 341 0.0 0.0 0.00 0.00 0.00 91 1016.9
20260903053831 73 341 0.0 0.0 0.00 0.00 0.00 91 1017.0
20260903053329 73 341 0.0 0.0 0.00 0.00 0.00 91 1017.0
20260903052829 73 341 0.0 0.0 0.00 0.00 0.00 91 1016.9
20260903052330 73 341 0.0 0.0 0.00 0.00 0.00 92 1017.0
20260903051830 72 341 0.0 0.0 0.00 0.00 0.00 92 1016.9
20260903051333 72 341 0.0 0.0 0.00 0.00 0.00 92 1016.9
20260903050834 72 341 0.0 0.0 0.00 0.00 0.00 92 1016.8
20260903050335 73 341 0.0 0.0 0.00 0.00 0.00 92 1016.8
20260903045836 73 341 0.0 0.0 0.00 0.00 0.00 92 1016.8
20260903045336 73 341 0.0 0.0 0.00 0.00 0.00 91 1016.8
20260903044817 73 341 0.0 0.0 0.00 0.00 0.00 90 1016.8
20260903044318 73 341 0.0 0.0 0.00 0.00 0.00 90 1016.9
20260903043818 73 341 0.0 0.0 0.00 0.00 0.00 91 1016.8
20260903043341 73 341 0.0 0.0 0.00 0.00 0.00 90 1016.8
20260903042846 73 341 0.0 0.0 0.00 0.00 0.00 91 1016.9
20260903042327 73 341 0.0 0.0 0.00 0.00 0.00 91 1016.8
20260903041855 73 341 0.0 0.0 0.00 0.00 0.00 91 1016.8
20260903041334 73 341 0.0 0.0 0.00 0.00 0.00 90 1016.8
20260903040834 73 341 0.0 0.0 0.00 0.00 0.00 90 1016.9
20260903040334 73 341 0.0 0.0 0.00 0.00 0.00 89 1017.0
20260903035827 74 341 0.0 0.0 0.00 0.00 0.00 89 1017.1
20260903035329 74 341 0.0 0.0 0.00 0.00 0.00 88 1017.1
20260903034829 74 341 0.0 0.0 0.00 0.00 0.00 88 1017.0
20260903034311 74 341 0.0 0.0 0.00 0.00 0.00 88 1017.1
20260903033854 74 341 0.0 0.0 0.00 0.00 0.00 88 1017.3
20260903033335 74 341 0.0 0.0 0.00 0.00 0.00 88 1017.3
20260903032836 74 341 0.0 0.0 0.00 0.00 0.00 88 1017.4
20260903032336 74 341 0.0 0.0 0.00 0.00 0.00 88 1017.3
20260903031836 74 341 0.0 0.0 0.00 0.00 0.00 87 1017.4
20260903031336 74 341 0.0 0.0 0.00 0.00 0.00 88 1017.4
20260903030836 74 341 0.0 0.0 0.00 0.00 0.00 88 1017.4
20260903030340 74 341 0.0 0.0 0.00 0.00 0.00 87 1017.4
20260903025842 74 341 0.0 0.0 0.00 0.00 0.00 88 1017.4
20260903024813 75 341 0.0 0.0 0.00 0.00 0.00 87 1017.4
20260903024342 75 341 0.0 0.0 0.00 0.00 0.00 86 1017.3
20260903023847 75 341 0.0 0.0 0.00 0.00 0.00 86 1017.4
20260903023324 75 341 0.0 0.0 0.00 0.00 0.00 86 1017.4
20260903022822 76 341 0.0 0.0 0.00 0.00 0.00 85 1017.4
20260903022325 76 341 0.0 0.0 0.00 0.00 0.00 85 1017.5
20260903021852 76 341 0.0 0.0 0.00 0.00 0.00 84 1017.5
20260903021331 76 341 0.0 0.0 0.00 0.00 0.00 84 1017.6
20260903020832 76 341 0.0 0.0 0.00 0.00 0.00 83 1017.6
20260903020329 76 341 0.0 0.0 0.00 0.00 0.00 83 1017.7
20260903015830 77 341 0.0 0.0 0.00 0.00 0.00 83 1017.8
20260903015312 77 341 0.0 0.0 0.00 0.00 0.00 82 1017.8
20260903014812 77 341 0.0 0.0 0.00 0.00 0.00 82 1017.9
20260903014313 77 341 0.0 0.0 0.00 0.00 0.00 82 1017.7
20260903013841 77 341 0.0 0.0 0.00 0.00 0.00 82 1017.8
20260903013321 77 341 0.0 0.0 0.00 0.00 0.00 81 1017.6
20260903012822 77 341 0.0 0.0 0.00 0.00 0.00 80 1017.6
20260903012322 78 341 0.0 0.0 0.00 0.00 0.00 80 1017.7
20260903011823 78 341 0.0 0.0 0.00 0.00 0.00 79 1017.7
20260903011322 78 341 0.0 0.0 0.00 0.00 0.00 78 1017.6
20260903010823 79 341 0.0 0.0 0.00 0.00 0.00 77 1017.5
20260903010346 79 341 0.0 0.0 0.00 0.00 0.00 77 1017.4
20260903005824 80 341 0.0 0.0 0.00 0.00 0.00 76 1017.6
20260903005323 80 341 0.0 0.0 0.00 0.00 0.00 76 1017.6
20260903004821 80 341 0.0 0.0 0.00 0.00 0.00 75 1017.7
20260903004320 81 341 0.0 0.0 0.00 0.00 0.00 74 1017.7
20260903003822 81 341 0.0 0.0 0.00 0.00 0.00 73 1017.7
20260903003323 82 341 0.0 0.0 0.00 0.00 0.00 73 1017.8
20260903002825 82 341 0.0 0.0 0.00 0.00 0.00 72 1017.8
20260903002352 82 341 0.0 0.0 0.00 0.00 0.00 72 1017.6
20260903001812 82 341 0.0 0.0 0.00 0.00 0.00 71 1017.6
20260903001313 83 341 0.0 0.0 0.00 0.00 0.00 71 1017.5
20260903000814 83 341 0.0 1.0 0.00 0.00 0.00 71 1017.4
20260903000333 83 341 0.0 1.0 0.00 0.00 0.00 71 1017.3
20260902235833 84 341 0.0 1.0 0.00 0.00 0.00 69 1017.1
20260902235334 84 341 0.0 1.0 0.00 0.00 0.00 70 1016.8
20260902234834 85 341 0.0 1.0 0.00 0.00 0.00 69 1016.9
20260902234336 85 341 0.0 1.0 0.00 0.00 0.00 69 1016.8
20260902233814 86 341 0.0 1.0 0.00 0.00 0.00 69 1016.6